Погода в Велиже

Погода в Велиже : погода сейчас, прогноз погоды и архив. Всё, что Вы хотите узнать о погоде в Велиже!

Поиск расширенной информации на нашем сайте:

Другие новости

Новости СМИ2

Главная страница сайта

Новости сайта

03.07.2017

Напоминаем, что на нашем специализированном сайте Метеоцентр.Азия вы можете получить высокодетализированные автоматические прогнозы погоды по пунктам России, СНГ и мира в авиационном формате (включающие направление и скорость ветра, видимость, явления погоды, количество и форму облачности, нижнюю и верхнюю границу облачности).


Погода в Велиже - сегодня

Время (UTC), дата Ветер
(°,м/с) 
Видим.   Явления Облачность Т
(°С)
Тd
(°С)
f(%) Тe
(°С)
Pmin
(гПа)
dP
(гПа)
Po
(мм)
O2
(г/м3)
Тmin Tmax R s Состояние
почвы
00 18.10.18 тихо ()   2800 м  дымка  ясно 
-0.4 -0.7 98 -0  1025.3  -0.4  753  304           
06 18.10.18 тихо ()   0300 м  туман  ясно 
-0.3 -0.6 98 -0  1024.5  -0.3  753  304  -1.7        влажная 
09 18.10.18 180 (Ю) 15000 м  {туман}  ясно 
+15.4 +9.2 66 +17  1022.7  -0.6  752  285           
12 18.10.18 200 (Ю) 20000 м  {туман}  ясно 
+19.8 +11 57 +23  1020.3  -2  751  280           
15 18.10.18 180 (Ю) 18000 м    ясно 
+15.3 +10 71 +18  1019.3  -1.3  750  284           
21 18.10.18 тихо ()   9000 м  дымка  ясно 
+6 +5.8 99 +6  1018.6  -0.7  749  294           
00 19.10.18 170 (Ю) 4000 м  дымка  ясно 
+4.6 +4.4 99 +5  1018  -0.7  748  296           
06 19.10.18 тихо ()   0200 м  туман  ясно 
+4.5 +4.3 99 +5  1017.9  0.6  748  296  +1        влажная 
09 19.10.18 320 (СЗ) 15000 м  {туман}  10/0 средняя 
[Ac und]
+11.8 +10.7 93 +14  1018.4  749  287           
21 19.10.18 270 (З) 8000 м  дымка{туман}  ясно 
-0.4 -0.7 98 1022.2  0.8  751  303           
00 20.10.18 290 (З) 8000 м  дымка{туман}  ясно 
-3.1 -3.5 97 -3  1022.9  0.5  751  307           
03 20.10.18 190 (Ю) 12000 м    ясно 
-4.8 -5.4 96 -4  1023.6  0.5  752  309  -5.4         
09 20.10.18 270 (З) 20000 м    ясно 
+10 +3.5 64 +11  1023.5  0.5  753  292           
12 20.10.18 280 (З) 23000 м    ясно 
+11.7 +2.3 52 +12  1022.6  -0.8  752  290           
15 20.10.18 тихо ()   20000 м    6/0 верхняя 
[Ci fib]
+6.1 +0.3 66 +6  1022.6  -0.4  752  296           
21 20.10.18 тихо ()   12000 м    ясно 
-3.6 -4.1 96 -4  1024.8  0.7  753  308           
00 21.10.18 тихо ()   12000 м    ясно 
-5.6 -6.4 94 -6  1025.3  0.3  753  310           
03 21.10.18 тихо ()   12000 м    ясно 
-6 -7 93 -6  1025.8  0.4  753  311  -6.5         
06 21.10.18 тихо ()   18000 м    6/6 930 м 
[Sc]
-2.2 -2.9 95 -2  1026.7  1.2  754  307  -6.5        замёрзшая 
09 21.10.18 тихо ()   20000 м    3/3 600 м 
[Sc]
+3.1 +1.3 88 +3  1027.2  0.9  755  301           
12 21.10.18 180 (Ю) 25000 м    3/3 600 м 
[Sc]
+10.2 +2.3 58 +11  1026.4  -0.3  755  293           
15 21.10.18 270 (З) 20000 м    3/3 600 м 
[Sc]
+5.2 +0.9 74 +6  1026.6  -0.2  755  298           
21 21.10.18 тихо ()   12000 м    ясно 
-4.6 -5.1 96 -5  1027.6  -0.4  755  310           
00 22.10.18 тихо ()   12000 м    ясно 
-5.2 -6 94 -5  1027  -0.7  754  310           
03 22.10.18 150 (ЮВ) 13000 м    ясно 
-5.2 -6 94 -5  1025.7  -1.3  753  310  -6.1         
Время (UTC), дата Ветер
(°,м/с) 
Видим.   Явления Облачность Т
(°С)
Тd
(°С)
f(%) Тe
(°С)
Pmin
(гПа)
dP
(гПа)
Po
(мм)
O2
(г/м3)
Тmin Tmax R s Состояние
почвы

Для получения пояснительной информации подведите курсор к названию столбца.

ПОГОДА в Велиже - архив

Всё, что Вы хотите узнать о погоде в Велиже - удобно и подробно!

Выберите нужную дату (начиная с 1 января 2015* года) и нажмите кнопку "Найти".
Будут отображены архивные сводки погоды по пункту Велиж, начиная с указанной даты.


Отображать данные в формате CSV (для использования в таблицах Excel)


Внимание! Наш архив погоды предназначен исключительно для личного некоммерческого использования в познавательных целях. Если Вам необходимы официальные справки о состоянии погоды (для производственных, юридических, коммерческих и т.п. целей), обращайтесь в органы Росгидромета.

*Примечание: данная дата относится к архиву по метеостанциям СССР (Россия, СНГ, Балтия).
Архив по метеостанциям Зарубежной Европы и Азии (кроме Китая) хранится 10 дней, по другим регионам земного шара (Китай, Африка, Америка, Австралия, Океания) - 1 день.

Велиж - район местоположения метеостанции


Название, широта, долгота, высота метеостанции:
Велиж 55.6°ш. 31.2°д. 183 м над ур. моря [Российская Федерация]

Дополнительная информация

В oтличие oт бoльшинства пoгoдных сайтoв мы публикуем пoдрoбную метеoинфoрмацию в детальнoм прoфессиoнальнoм фoрмате.

Характеристики температуры и влажнoсти вoздуха измеряются на высoте 2 м в тени вдали oт зданий и деревьев.
Скoрoсть ветра измеряется на высoте 10 м (на урoвне рoста челoвека скoрoсть ветра ниже в 1.5-2 раза). Если метеoстанция нахoдится в гoрoде или в лесу, тo скoрoсть ветра занижена на 2-4 м/с пo сравнению с oткрытым местoм. Скoрoсть ветра над акватoриями крупных рек и oзёр, а также на вершинах хoлмoв на 2-5 м/с выше, чем в oбычных услoвиях.
Атмoсфернoе давление в разных тoчках местнoсти мoжет значительнo oтличаться oт давления на метеoстанции, в зависимoсти oт услoвий рельефа (при пoдъёме на 10 м давление пoнижается примернo на 1 мм рт.ст.).